Back to catalog

STARLINK-11167

AliveCommunicationsVLEO
NORAD 60061·PAYLOAD·🇺🇸 United States

Launched Jun 19, 2024 from Vandenberg Space Force Base

Loading…

Next Passes (next 24 hours)

TLE

FreshSource: CelesTrak SupGP

Epoch: Sep 14, 2026, 20:46 UTC

1 60061C 24113C   26257.86576389 -.00047555  00000+0 -39156-3 0  2579
2 60061  53.1561 338.6596 0001126  75.7698 269.6497 15.69743416    18

Track STARLINK-11167 in real time with AllMySat

Download on the App Store